Regional Weather Roundup
Issued by NWS Little Rock, AR

Home | Current Version | Previous Version | Graphics & Text | Print | Product List | Glossary On
Versions: 1 2 3 4 5 6 7 8 9 10 11 12 13 14 15 16 17 18 19 20 21 22 23 24 25 26 27 28 29 30 31 32 33 34 35 36 37 38 39 40 41 42 43 44 45 46 47 48 49 50
000
ASUS44 KLZK 222005
RWRLZK

WEATHER ROUNDUP FOR ARKANSAS
NATIONAL WEATHER SERVICE LITTLE ROCK AR
300 PM CDT SAT APR 22 2017

NOTE: "FAIR" INDICATES FEW OR NO CLOUDS BELOW 12,000 FEET WITH NO
SIGNIFICANT WEATHER AND/OR OBSTRUCTIONS TO VISIBILITY.

ARZ001-003-010-029-222100-
NORTHWEST ARKANSAS

CITY           SKY/WX    TMP DP  RH WIND       PRES   REMARKS
FAYETTEVILLE   LGT RAIN  46  46 100 N13G20    30.03S FOG
FORT SMITH     CLOUDY    53  44  71 NW20G25   30.03R
HARRISON       LGT RAIN  47  46  97 N8        30.02S FOG
BENTONVILLE    CLOUDY    46  43  87 N8G21     30.05S
ROGERS         LGT RAIN  46  44  93 N13G18    30.05S FOG
SILOAM SPGS    CLOUDY    46  41  81 N15       30.06R
HIGHFILL       CLOUDY    48  46  93 N15       30.05R FOG
SPRINGDALE     CLOUDY    46  46 100 N13       30.05S FOG
$$

ARZ004-005-016-222100-
NORTH CENTRAL ARKANSAS

CITY           SKY/WX    TMP DP  RH WIND       PRES   REMARKS
BATESVILLE     CLOUDY   N/A N/A N/A N5        29.97F
FLIPPIN        CLOUDY    50  43  76 N6        29.99S
MTN HOME       CLOUDY    49  45  86 NE5       30.00R FOG
$$

ARZ040-041-222100-
WEST CENTRAL ARKANSAS

CITY           SKY/WX    TMP DP  RH WIND       PRES   REMARKS
MENA           CLOUDY    57  52  82 NW9       30.00R
MOUNT IDA      CLOUDY    60  49  66 VRB6      29.94R
$$

ARZ009-017-025-026-028-222100-
NORTHEAST ARKANSAS

CITY           SKY/WX    TMP DP  RH WIND       PRES   REMARKS
CORNING        CLOUDY    50  48  93 NE14      29.97F
JONESBORO      CLOUDY    52  48  86 N8G16     29.94F
NEWPORT        CLOUDY    50  48  93 N16       29.96S
WALNUT RIDGE   CLOUDY    52  45  76 N10G16    29.96F
BLYTHEVILLE    CLOUDY    53  51  93 NE15      29.91F
$$

ARZ022-023-033-042-044-222100-
CENTRAL ARKANSAS

CITY           SKY/WX    TMP DP  RH WIND       PRES   REMARKS
LITTLE ROCK    CLOUDY    58  53  84 N6        29.94F
N LITTLE ROCK    N/A     58  53  85 N6        29.94F
JACKSONVILLE   CLOUDY    57  54  88 N9        29.93F
CONWAY           N/A     59  54  82 N10       29.93S
SEARCY         CLOUDY    54  51  90 N13       29.97R
HOT SPRINGS    CLOUDY    65  55  70 W8        29.94S
RUSSELLVILLE   CLOUDY    55  52  89 N10       29.96R FOG
$$

ARZ036-222100-
EAST ARKANSAS

CITY           SKY/WX    TMP DP  RH WIND       PRES   REMARKS
WEST MEMPHIS   CLOUDY    54  54 100 N13G20    29.89S
$$

ARZ050-053-066-070-073-222100-
SOUTHWEST ARKANSAS

CITY           SKY/WX    TMP DP  RH WIND       PRES   REMARKS
ARKADELPHIA    CLOUDY    62  55  77 N7        29.95R
CAMDEN         CLOUDY    64  55  72 NW9       29.93S
TEXARKANA      CLOUDY    64  51  62 NW16G25   29.96S
EL DORADO      LGT RAIN  62  60  93 NW7       29.93S
DE QUEEN       CLOUDY    61  49  64 N8G18     29.97S
$$

ARZ056-057-069-222100-
SOUTHEAST ARKANSAS

CITY           SKY/WX    TMP DP  RH WIND       PRES   REMARKS
PINE BLUFF     CLOUDY    59  54  83 N13       29.93F
STUTTGART      CLOUDY    55  45  67 N17       29.93F
MONTICELLO     CLOUDY    60  56  86 VRB3      29.90F

$$





USA.gov is the U.S. government's official web portal to all federal, state and local government web resources and services.